CW2157 Weather Reports


time (UTC)temp
C
wind
direction
speed
KPH
gust
KPH
rain 1hr
cm
rain 24hr
cm
rain mn
cm
humidity
%
barometer
mb
20260503174705 14 343 12.9 27.4 0.00 0.00 0.00 41 1014.4
20260503174205 14 329 4.8 19.3 0.00 0.00 0.00 44 1014.3
20260503173705 14 1 14.5 20.9 0.00 0.00 0.00 38 1014.3
20260503173205 15 336 11.3 24.1 0.00 0.00 0.00 38 1014.6
20260503172705 14 353 4.8 14.5 0.00 0.00 0.00 41 1014.6
20260503172205 14 353 9.7 19.3 0.00 0.00 0.00 38 1014.6
20260503171704 14 331 1.6 19.3 0.00 0.00 0.00 40 1014.6
20260503171205 14 14 4.8 14.5 0.00 0.00 0.00 45 1014.6
20260503170705 14 254 4.8 12.9 0.00 0.00 0.00 40 1014.7
20260503170205 13 243 11.3 20.9 0.00 0.00 0.00 40 1014.7
20260503160205 13 330 11.3 19.3 0.00 0.00 0.00 41 1015.1
20260503150704 12 14 4.8 20.9 0.00 0.00 0.00 47 1015.1
20260503150205 12 313 9.7 16.1 0.00 0.00 0.00 44 1015.2
20260503140205 11 326 11.3 22.5 0.00 0.00 0.00 49 1015.2
20260503131205 10 321 11.3 24.1 0.00 0.00 0.00 53 1015.1
20260503130704 10 309 9.7 22.5 0.00 0.00 0.00 56 1015.1
20260503130205 10 156 6.4 16.1 0.00 0.00 0.00 55 1015.0
20260503120205 8 310 6.4 19.3 0.00 0.00 0.00 59 1014.4
20260503110205 7 318 8.0 24.1 0.00 0.00 0.00 62 1013.8
20260503090204 7 84 4.8 20.9 0.00 0.00 0.00 64 1012.4
20260503081205 8 229 8.0 19.3 0.00 0.00 0.00 64 1012.1
20260503080704 8 234 8.0 20.9 0.00 0.00 0.00 64 1012.0
20260503080205 8 341 4.8 14.5 0.00 0.00 0.00 65 1012.0
20260503072705 8 300 3.2 19.3 0.00 0.00 0.00 62 1011.6
20260503072204 8 355 3.2 27.4 0.00 0.00 0.00 61 1011.5
20260503071705 8 302 6.4 16.1 0.00 0.00 0.00 61 1011.5
20260503071205 8 339 3.2 14.5 0.00 0.00 0.00 61 1011.4
20260503070705 8 303 6.4 19.3 0.00 0.00 0.00 62 1011.3
20260503070205 8 336 8.0 14.5 0.00 0.00 0.00 62 1011.3
20260503060205 10 315 3.2 14.5 0.00 0.00 0.00 56 1011.2
20260503054704 10 354 3.2 19.3 0.00 0.00 0.00 55 1011.4
20260503054204 10 282 3.2 19.3 0.00 0.00 0.00 55 1011.3
20260503053705 10 3 8.0 19.3 0.00 0.00 0.00 55 1011.3
20260503053205 10 358 4.8 19.3 0.00 0.00 0.00 55 1011.3
20260503052704 10 354 6.4 19.3 0.00 0.00 0.00 54 1011.4
20260503052205 10 356 8.0 19.3 0.00 0.00 0.00 54 1011.4
20260503051704 10 356 8.0 20.9 0.00 0.00 0.00 53 1011.5
20260503051204 10 349 9.7 20.9 0.00 0.00 0.00 55 1011.4
20260503050705 10 334 8.0 24.1 0.00 0.00 0.00 54 1011.2
20260503050205 10 339 4.8 19.3 0.00 0.00 0.00 55 1011.3
20260503045204 11 350 3.2 20.9 0.00 0.00 0.00 55 1011.4
20260503044704 11 345 0.0 16.1 0.00 0.00 0.00 54 1011.5
20260503044204 11 344 9.7 20.9 0.00 0.00 0.00 54 1011.4
20260503043704 11 339 6.4 12.9 0.00 0.00 0.00 56 1011.4
20260503043205 11 358 9.7 19.3 0.00 0.00 0.00 55 1011.3
20260503042204 11 340 4.8 19.3 0.00 0.00 0.00 53 1011.3
20260503041705 11 336 8.0 19.3 0.00 0.00 0.00 54 1011.3
20260503041205 11 335 9.7 20.9 0.00 0.00 0.00 53 1011.3
20260503040204 12 350 8.0 22.5 0.00 0.00 0.00 52 1011.3
20260503035705 12 354 9.7 22.5 0.00 0.00 0.00 50 1011.4
20260503035205 12 357 14.5 24.1 0.00 0.00 0.00 50 1011.4
20260503034704 12 344 12.9 27.4 0.00 0.00 0.00 50 1011.4
20260503034205 12 340 6.4 24.1 0.00 0.00 0.00 51 1011.4
20260503033704 12 352 8.0 16.1 0.00 0.00 0.00 51 1011.2
20260503033205 12 352 6.4 19.3 0.00 0.00 0.00 51 1011.1
20260503032704 12 338 8.0 19.3 0.00 0.00 0.00 51 1011.0
20260503032205 12 348 3.2 12.9 0.00 0.00 0.00 51 1011.1
20260503031704 12 346 4.8 16.1 0.00 0.00 0.00 50 1011.1
20260503031205 12 343 4.8 12.9 0.00 0.00 0.00 49 1011.1
20260503030704 12 351 4.8 14.5 0.00 0.00 0.00 48 1011.1
20260503025705 12 1 3.2 11.3 0.00 0.00 0.00 48 1011.0
20260503025205 12 357 3.2 12.9 0.00 0.00 0.00 49 1011.0
20260503024705 12 27 3.2 11.3 0.00 0.00 0.00 49 1011.0
20260503024205 12 13 3.2 12.9 0.00 0.00 0.00 48 1010.9
20260503023705 12 28 1.6 8.0 0.00 0.00 0.00 48 1010.9
20260503023204 12 15 6.4 19.3 0.00 0.00 0.00 48 1010.9
20260503022704 12 357 4.8 14.5 0.00 0.00 0.00 49 1010.9
20260503022204 12 330 4.8 12.9 0.00 0.00 0.00 48 1010.8
20260503021705 12 349 4.8 14.5 0.00 0.00 0.00 48 1010.8
20260503021205 12 345 8.0 19.3 0.00 0.00 0.00 49 1010.9
20260503020704 12 4 3.2 8.0 0.00 0.00 0.00 48 1010.9
20260503020205 13 333 4.8 12.9 0.00 0.00 0.00 47 1010.9
20260503015704 13 353 4.8 19.3 0.00 0.00 0.00 47 1011.0
20260503015204 13 330 6.4 16.1 0.00 0.00 0.00 48 1011.0
20260503014704 13 340 6.4 12.9 0.00 0.00 0.00 47 1011.1
20260503013705 13 5 4.8 12.9 0.00 0.00 0.00 47 1011.1
20260503013204 13 343 8.0 14.5 0.00 0.00 0.00 47 1011.0
20260503012704 13 354 9.7 20.9 0.00 0.00 0.00 46 1011.0
20260503012204 13 336 8.0 16.1 0.00 0.00 0.00 46 1011.0
20260503011704 13 0 8.0 20.9 0.00 0.00 0.00 46 1010.9
20260503011204 13 352 4.8 12.9 0.00 0.00 0.00 49 1011.0
20260503010704 13 329 4.8 12.9 0.00 0.00 0.00 46 1010.9
20260503010205 13 337 8.0 16.1 0.00 0.00 0.00 47 1010.9
20260503005204 13 335 6.4 19.3 0.00 0.00 0.00 47 1010.7
20260503004704 13 354 6.4 19.3 0.00 0.00 0.00 48 1010.6
20260503004204 13 337 6.4 12.9 0.00 0.00 0.00 49 1010.6
20260503003204 13 7 8.0 12.9 0.00 0.00 0.00 50 1010.5
20260503002204 13 346 1.6 8.0 0.00 0.00 0.00 49 1010.4
20260503001704 13 347 1.6 4.8 0.00 0.00 0.00 49 1010.3
20260503001205 13 327 0.0 4.8 0.00 0.00 0.00 50 1010.2
20260503000704 13 353 1.6 4.8 0.00 0.00 0.00 48 1010.2
20260503000205 13 0 1.6 3.2 0.00 0.00 0.00 48 1010.3
20260502235704 13 7 3.2 4.8 0.00 0.00 0.00 48 1010.2
20260502235205 13 346 1.6 4.8 0.00 0.00 0.00 48 1010.1
20260502234705 13 12 3.2 4.8 0.00 0.00 0.00 47 1010.0
20260502234204 13 354 1.6 4.8 0.00 0.00 0.00 47 1009.9
20260502233205 13 334 1.6 9.7 0.00 0.00 0.00 46 1009.9
20260502232704 13 357 1.6 4.8 0.00 0.00 0.00 47 1009.9
20260502231704 13 4 1.6 8.0 0.00 0.00 0.00 45 1009.9
20260502231204 13 352 1.6 4.8 0.00 0.00 0.00 46 1009.8
20260502230204 13 4 3.2 12.9 0.00 0.00 0.00 44 1009.9
20260502225204 14 36 8.0 16.1 0.00 0.00 0.00 45 1009.9
20260502224704 14 56 4.8 14.5 0.00 0.00 0.00 47 1009.9
20260502224204 14 55 4.8 12.9 0.00 0.00 0.00 47 1009.9
20260502223704 14 33 4.8 8.0 0.00 0.00 0.00 44 1010.0
20260502223204 14 35 3.2 9.7 0.00 0.00 0.00 44 1009.9
20260502222704 14 18 4.8 11.3 0.00 0.00 0.00 44 1009.9
20260502222204 15 355 8.0 14.5 0.00 0.00 0.00 44 1010.0
20260502221704 15 358 4.8 14.5 0.00 0.00 0.00 43 1009.9
20260502221204 15 27 3.2 9.7 0.00 0.00 0.00 42 1009.9
20260502220704 15 45 4.8 16.1 0.00 0.00 0.00 44 1010.0
20260502220204 15 47 8.0 19.3 0.00 0.00 0.00 42 1009.9
20260502215704 15 44 9.7 22.5 0.00 0.00 0.00 42 1010.0
20260502215204 15 30 8.0 16.1 0.00 0.00 0.00 46 1009.9
20260502214704 15 42 12.9 19.3 0.00 0.00 0.00 44 1009.8
20260502214204 15 50 8.0 16.1 0.00 0.00 0.00 44 1009.8
20260502213205 15 354 9.7 16.1 0.00 0.00 0.00 43 1009.9
20260502212704 15 17 4.8 16.1 0.00 0.00 0.00 46 1009.9
20260502212204 15 19 8.0 16.1 0.00 0.00 0.00 44 1009.9
20260502210704 15 32 9.7 19.3 0.00 0.00 0.00 44 1009.8
20260502205704 14 42 11.3 19.3 0.00 0.00 0.00 50 1009.8
20260502205204 14 36 3.2 12.9 0.00 0.00 0.00 46 1009.8
20260502204704 14 9 9.7 16.1 0.00 0.00 0.00 44 1009.8
20260502204204 15 357 6.4 19.3 0.00 0.00 0.00 44 1009.8
20260502203705 15 51 11.3 19.3 0.00 0.00 0.00 45 1009.8
20260502203205 15 31 4.8 14.5 0.00 0.00 0.00 41 1009.9
20260502202704 15 13 8.0 20.9 0.00 0.00 0.00 41 1009.9
20260502202204 15 12 6.4 14.5 0.00 0.00 0.00 43 1009.8
20260502201704 15 36 11.3 19.3 0.00 0.00 0.00 44 1009.8
20260502200704 15 53 6.4 16.1 0.00 0.00 0.00 44 1009.9
20260502200204 15 356 6.4 20.9 0.00 0.00 0.00 43 1009.9
20260502195704 15 29 9.7 16.1 0.00 0.00 0.00 44 1010.0
20260502194704 15 58 11.3 22.5 0.00 0.00 0.00 43 1010.1
20260502194204 15 61 11.3 22.5 0.00 0.00 0.00 43 1010.1
20260502193204 16 39 8.0 22.5 0.00 0.00 0.00 43 1010.3
20260502192205 16 35 11.3 19.3 0.00 0.00 0.00 44 1010.4
20260502191704 16 23 4.8 22.5 0.00 0.00 0.00 46 1010.5
20260502191204 16 312 9.7 19.3 0.00 0.00 0.00 43 1010.5
20260502190204 16 25 6.4 14.5 0.00 0.00 0.00 42 1010.6
20260502185704 16 349 4.8 19.3 0.00 0.00 0.00 48 1010.8
20260502185204 15 23 9.7 22.5 0.00 0.00 0.00 47 1010.8
20260502184704 15 323 8.0 19.3 0.00 0.00 0.00 45 1011.0
20260502184204 15 11 8.0 16.1 0.00 0.00 0.00 48 1011.1
20260502183704 15 343 4.8 20.9 0.00 0.00 0.00 48 1011.1
20260502183205 15 75 8.0 16.1 0.00 0.00 0.00 47 1011.3
20260502182204 15 15 3.2 14.5 0.00 0.00 0.00 48 1011.4
20260502181204 15 355 8.0 16.1 0.00 0.00 0.00 47 1011.5
20260502180705 15 9 14.5 20.9 0.00 0.00 0.00 49 1011.5
20260502180204 15 42 9.7 19.3 0.00 0.00 0.00 52 1011.5